THOR ABLESTAR DEB, 6748

Orbit data source: Space-Track

THOR ABLESTAR DEB, 6748 is space debris in LEO originally from a launch on Thu, 29 Jun 1961 UTC launched from the Air Force Eastern Test Range (AFETR). Debris objects in space refer to the collection of defunct objects orbiting the Earth. Examples of debris include non-operational satellites, rocket bodies, and fragments generated from explosions, collisions, or faulty payload assembly.

Loading next visibility...
Identifier
6748, 1961-015KN
Orbit
LEO
Country
Flag of USUS
Related business
Manufacturer
Unknown
Mission
Spacecraft
Bus & Motor
Unknown
Mass
Unknown
Launch date (UTC)
1961-06-29 (65 years ago)
Launch vehicle
Unknown
Launch site
Air Force Eastern Test Range (AFETR)
Object type
Payload
Rocket body
Debris
Shape & HBR
Unknown shape, 0.1 m
Radar Cross Section
Small (<0.1 m²)

Expand to show TLE details & history
Last TLE update: 16 hours ago

TLE from 16 hours ago
0 THOR ABLESTAR DEB
1 06748U 61015KN  26120.61258886  .00007054  00000-0  24096-2 0  9992
2 06748  66.8926  83.4316 0067464 325.9080  33.7697 14.35546721283830
Epoch: 2026-04-30T14:42Z
TLE epoch observation values (Epoch: 2026-04-30T14:42:07.677Z)
Latitude
-0.00005°
Longitude
4.3429°
Altitude
735.369 km
Speed
7.509 km/s
True Right ascension
05h 33m 43s
True Declination
0° 00' 00"
Sunlit
Object was in daylight at epoch
Visualization orbit readout
Latitude
Unknown
Longitude
Unknown
Altitude
Unknown
Speed
Unknown
Apparent Right ascension
Unknown
Apparent Declination
Unknown
Sunlit
N/A
Visualization observer readout
Local Sidereal Time
14:47:47
Azimuth
Unknown
Elevation
Unknown
Doppler factor
Unknown
Orbital elements
Apogee altitude
819.833 km
Perigee altitude
723.363 km
Semi-major axis
7,149.735 km
Eccentricity
0.00675
Inclination
66.8926°
RAAN
83.4316°
Arg. of periapsis
325.908°
True anomaly
34.20245°
Mean anomaly
33.7697°
Eccentric anomaly
33.98577°
Mean motion
3.59011 °/min
Orbital period
100.28 mins
BSTAR
0.0024096
Loading maneuver chart data...
Computing Atmospheric mass density...

Documentation

Showing up to 5 results
|